Meath Environmental Platform

Observations for Trim Market St

Time AQI Temp °C Hum % Pres Pa CO μg/m³ H₂S μg/m³ NO μg/m³ NO₂ μg/m³ O₃ μg/m³ SO₂ μg/m³ PM1 μg/m³ PM2.5 μg/m³ PM10 μg/m³
Wednesday 26 August 2026
03:53 2 16.7 85 2,147,483,647 0.29 0 1.13 14.51 40.8 0 5.7 6.98 10.75
03:49 2 16.7 85 2,147,483,647 0.29 0 1.36 14.64 31.68 0 6.41 6.52 11.82
03:42 2 16.7 85 2,147,483,647 0.28 0 1.6 14.41 35.48 0 4.99 6.05 9.68
03:41 2 16.7 85 2,147,483,647 0.29 0 1.57 15.27 36.49 0 4.28 6.51 11.28
03:38 2 16.6 85 2,147,483,647 0.3 0 1.27 14.41 41.24 0 4.99 6.05 10.75
03:35 2 16.7 85 2,147,483,647 0.29 0 0.97 14.3 35.67 0 5.7 6.27 9.14
03:34 2 16.6 85 2,147,483,647 0.29 0 1.24 14.94 34.24 0 4.99 6.52 11.29
03:33 2 16.7 85 2,147,483,647 0.3 0 1.15 14.8 34.71 0 6.41 6.98 11.29
03:32 2 16.7 85 2,147,483,647 0.29 0 1.18 15.28 34.87 0 4.99 5.49 10.75
03:30 2 16.7 85 2,147,483,647 0.29 0 1.64 14.42 34.92 0 4.99 5.58 9.68
03:29 2 16.7 85 2,147,483,647 0.29 0 1.71 14.11 35.64 0 4.99 5.58 11.28
03:28 2 16.7 85 2,147,483,647 0.29 0 1.55 14.32 33.57 0 4.99 5.58 10.75
03:26 2 16.7 85 2,147,483,647 0.3 0 1.32 14.12 33.99 0 4.28 4.65 8.6
03:25 2 16.7 85 2,147,483,647 0.29 0 1.11 14.82 29.1 0 4.28 6.05 10.21
03:24 2 16.6 85 2,147,483,647 0.29 0 1 15.28 33.2 0 6.41 6.52 11.29
03:19 2 16.7 85 2,147,483,647 0.29 0 1.68 14.33 31.88 0 4.99 6.05 10.75
03:17 2 16.6 85 2,147,483,647 0.3 0 1.93 16.9 35.81 0 4.99 5.58 9.68
03:16 2 16.6 85 2,147,483,647 0.29 0 1.7 14.15 33.92 0 3.56 5.12 9.68
03:13 2 16.7 85 2,147,483,647 0.3 0 1.46 15.52 31.14 0 2.14 4.2 9.14
03:05 2 16.6 85 2,147,483,647 0.3 0 1.59 15.32 34.81 0 5.7 6.27 10.21